Location: B
(0.0000°N, 0.0000°E)
Time: 03:44:21
(UTC+02:00)

Amateur Radio Satellites - All Passes

Search period start: 19 September 2014 03:14
Search period end: 20 September 2014 03:14
Location: B, 0.0000°N, 0.0000°E

Satellite Date Start Highest point End Downlink Frequencies (MHz)
Time Altitude Azimuth
AO-27 19 Sep 03:24:05 03:28:54 38° 103° (ESE) 03:33:44 436.795 MHz FM
Oscar 16 19 Sep 03:47:33 03:52:10 35° 283° (WNW) 03:56:49 437.025 USB, Beacon 2401.1428
JAS-1B 19 Sep 03:58:13 04:04:00 81° 283° (WNW) 04:10:34 435.800 - 435.900 CW/SSB
AO-Echo 19 Sep 04:08:15 04:13:04 48° 282° (WNW) 04:18:04 ?
Gurwin Techsat 1B 19 Sep 04:10:36 04:15:45 53° 103° (ESE) 04:20:55 435.225 FM
ITAMSAT 1 19 Sep 04:28:45 04:33:27 35° 283° (WNW) 04:38:11 435.822 SSB
Uribyol 2 19 Sep 04:33:30 04:37:55 29° 283° (WNW) 04:42:23 436.500 FM
TMSAT-1 19 Sep 04:48:09 04:53:26 81° 282° (WNW) 04:58:45 436.925 FM
AO-27 19 Sep 05:05:51 05:08:08 13° 283° (WNW) 05:10:25 436.795 MHz FM
Uosat F 19 Sep 05:18:30 05:22:31 24° 103° (ESE) 05:26:32 435.120 FM
RS-15 19 Sep 05:21:16 05:32:11 51° 290° (WNW) 05:42:44 29.354 - 29.394 USB, Beacon 29.352 USB
Saudisat 1A 19 Sep 05:22:30 05:26:53 75° 248° (WSW) 05:31:16 436.775 MHz
AO-7 19 Sep 05:58:25 06:06:42 83° 106° (ESE) 06:15:03 29.400 - 29.500 MHz
OPAL 19 Sep 06:37:34 06:42:36 64° 256° (WSW) 06:47:41 ?
KITSAT 1 19 Sep 06:43:50 06:50:45 32° 70° (ENE) 06:57:39 435.175 FM
Uosat F 19 Sep 06:57:29 07:01:01 20° 283° (WNW) 07:04:35 435.120 FM
Hamsat 19 Sep 07:02:41 07:06:19 29° 101° (ESE) 07:09:58 145.90 MHz
STRAND 1 19 Sep 07:21:04 07:22:12 11° 77° (ENE) 07:23:19 ?
JAS-2 19 Sep 07:29:54 07:36:48 85° 103° (ESE) 07:44:28 435.800 - 435.900 CW/SSB, 435.910 FM
AO-7 19 Sep 07:57:49 07:59:01 10° 288° (WNW) 08:00:13 29.400 - 29.500 MHz
MaSat-1 19 Sep 08:18:39 08:22:53 40° 106° (ESE) 08:27:28 437.345 MHz
KITSAT 1 19 Sep 08:38:51 08:45:48 32° 250° (WSW) 08:52:47 435.175 FM
STRAND 1 19 Sep 08:56:19 09:01:06 42° 257° (WSW) 09:05:53 ?
PANSAT 19 Sep 09:06:20 09:07:43 12° 28° (NNE) 09:09:06 not established
SO-67 19 Sep 09:07:16 09:10:27 36° 281° (W) 09:13:39 435.3500 MHz FM
HO-68 19 Sep 09:36:58 09:42:01 21° 105° (ESE) 09:47:04 435.675 MHz FM
MaSat-1 19 Sep 09:58:44 09:59:33 10° 289° (WNW) 10:00:23 437.345 MHz
UKube-1 19 Sep 10:25:30 10:28:31 18° 103° (ESE) 10:31:32 145.840 MHz, 145.915 MHz
PANSAT 19 Sep 10:44:05 10:47:55 74° 30° (NNE) 10:51:47 not established
SO-50 19 Sep 10:44:31 10:49:12 49° 248° (WSW) 10:53:53 436.795 FM
PCSat 19 Sep 11:12:26 11:14:40 13° 110° (ESE) 11:16:54 145.825 MHz
HO-68 19 Sep 11:22:42 11:29:22 43° 285° (WNW) 11:36:05 435.675 MHz FM
FUNcube-1 19 Sep 11:32:39 11:36:43 34° 101° (ESE) 11:40:44 145.950 - 145.970 MHz USB
Oscar 11 19 Sep 11:44:20 11:48:28 47° 282° (WNW) 11:52:36 145.825 FM, Beacon 2401.500 USB
UKube-1 19 Sep 12:01:25 12:04:27 19° 282° (WNW) 12:07:29 145.840 MHz, 145.915 MHz
Sapphire 19 Sep 12:25:23 12:30:47 86° 109° (ESE) 12:36:10 437.095 MHz 1200 baud AX-25 AFSK
PANSAT 19 Sep 12:25:37 12:28:05 16° 208° (SSW) 12:30:33 not established
UOSAT-12 19 Sep 12:26:17 12:30:46 56° 248° (WSW) 12:35:11 437.025 FM, 437.400 FM
PCSat 19 Sep 12:52:47 12:57:50 41° 289° (WNW) 13:02:53 145.825 MHz
FUNcube-1 19 Sep 13:11:59 13:12:48 10° 283° (WNW) 13:13:37 145.950 - 145.970 MHz USB
ISS 19 Sep 13:39:56 13:43:13 67° 235° (SW) 13:46:31 145.800 FM
Oscar 19 19 Sep 14:06:44 14:08:21 11° 77° (ENE) 14:09:58 437.125 CW, 437.150 USB
JAS-1B 19 Sep 14:19:57 14:25:36 18° 78° (ENE) 14:30:52 435.800 - 435.900 CW/SSB
Oscar 16 19 Sep 14:42:17 14:47:00 36° 77° (ENE) 14:51:42 437.025 USB, Beacon 2401.1428
RS-15 19 Sep 14:52:50 15:01:09 23° 69° (ENE) 15:09:38 29.354 - 29.394 USB, Beacon 29.352 USB
AO-Echo 19 Sep 15:00:34 15:04:20 22° 78° (ENE) 15:07:59 ?
ITAMSAT 1 19 Sep 15:24:39 15:29:24 38° 77° (ENE) 15:34:08 435.822 SSB
Uribyol 2 19 Sep 15:28:48 15:33:44 46° 77° (ENE) 15:38:38 436.500 FM
Oscar 19 19 Sep 15:42:32 15:47:24 42° 257° (WSW) 15:52:16 437.125 CW, 437.150 USB
TMSAT-1 19 Sep 15:48:27 15:52:02 19° 77° (ENE) 15:55:36 436.925 FM
AO-27 19 Sep 15:59:04 16:04:15 79° 257° (WSW) 16:09:24 436.795 MHz FM
JAS-1B 19 Sep 16:06:09 16:15:54 70° 256° (WSW) 16:24:37 435.800 - 435.900 CW/SSB
Oscar 16 19 Sep 16:23:37 16:26:04 14° 257° (WSW) 16:28:31 437.025 USB, Beacon 2401.1428
AO-7 19 Sep 16:36:11 16:40:52 16° 73° (ENE) 16:45:31 29.400 - 29.500 MHz
AO-Echo 19 Sep 16:39:18 16:42:50 20° 257° (WSW) 16:46:17 ?
Gurwin Techsat 1B 19 Sep 16:49:14 16:54:23 52° 257° (WSW) 16:59:32 435.225 FM
RS-15 19 Sep 17:01:44 17:13:06 63° 249° (WSW) 17:25:02 29.354 - 29.394 USB, Beacon 29.352 USB
ITAMSAT 1 19 Sep 17:06:23 17:08:36 13° 257° (WSW) 17:10:50 435.822 SSB
TMSAT-1 19 Sep 17:27:14 17:31:41 28° 257° (WSW) 17:36:07 436.925 FM
Saudisat 1A 19 Sep 17:28:49 17:33:01 46° 292° (WNW) 17:37:13 436.775 MHz
OPAL 19 Sep 17:32:25 17:35:52 19° 104° (ESE) 17:39:18 ?
Uosat F 19 Sep 17:47:27 17:52:21 57° 77° (ENE) 17:57:14 435.120 FM
AO-7 19 Sep 18:25:01 18:33:14 63° 254° (WSW) 18:41:25 29.400 - 29.500 MHz
KITSAT 1 19 Sep 18:51:19 18:58:49 42° 110° (ESE) 19:06:16 435.175 FM
JAS-2 19 Sep 19:05:38 19:11:15 43° 79° (E) 19:16:19 435.800 - 435.900 CW/SSB, 435.910 FM
Hamsat 19 Sep 19:09:31 19:13:34 39° 79° (ENE) 19:17:37 145.90 MHz
OPAL 19 Sep 19:10:22 19:14:29 26° 285° (WNW) 19:18:35 ?
STRAND 1 19 Sep 19:50:29 19:54:51 29° 103° (ESE) 19:59:15 ?
MaSat-1 19 Sep 20:10:48 20:12:58 20° 71° (ENE) 20:14:59 437.345 MHz
KITSAT 1 19 Sep 20:47:37 20:53:53 25° 291° (WNW) 21:00:09 435.175 FM
SO-67 19 Sep 20:51:37 20:55:04 72° 259° (W) 20:58:30 435.3500 MHz FM
JAS-2 19 Sep 20:53:30 20:55:52 13° 254° (WSW) 20:58:08 435.800 - 435.900 CW/SSB, 435.910 FM
PANSAT 19 Sep 20:53:33 20:55:11 12° 153° (SSE) 20:56:48 not established
SO-50 19 Sep 21:19:44 21:22:13 15° 113° (ESE) 21:24:41 436.795 FM
HO-68 19 Sep 21:29:25 21:33:40 17° 75° (ENE) 21:37:54 435.675 MHz FM
STRAND 1 19 Sep 21:30:29 21:33:46 17° 283° (WNW) 21:37:03 ?
PANSAT 19 Sep 22:31:32 22:35:23 79° 150° (SSE) 22:39:14 not established
UKube-1 19 Sep 22:34:48 22:38:21 25° 78° (ENE) 22:41:51 145.840 MHz, 145.915 MHz
SO-50 19 Sep 22:58:58 23:02:30 24° 292° (WNW) 23:06:03 436.795 FM
UOSAT-12 19 Sep 22:59:19 23:00:53 12° 112° (ESE) 23:02:28 437.025 FM, 437.400 FM
HO-68 19 Sep 23:14:10 23:21:02 51° 255° (WSW) 23:27:53 435.675 MHz FM
Sapphire 19 Sep 23:20:26 23:23:58 18° 70° (ENE) 23:27:31 437.095 MHz 1200 baud AX-25 AFSK
FUNcube-1 19 Sep 23:43:07 23:47:11 46° 78° (ENE) 23:51:19 145.950 - 145.970 MHz USB
PCSat 19 Sep 23:45:59 23:51:00 40° 71° (ENE) 23:56:01 145.825 MHz
Oscar 11 19 Sep 23:53:44 23:57:41 34° 258° (WSW) 00:01:38 145.825 FM, Beacon 2401.500 USB
UKube-1 20 Sep 00:12:09 00:14:16 13° 257° (WSW) 00:16:23 145.840 MHz, 145.915 MHz
PANSAT 20 Sep 00:13:14 00:15:33 15° 332° (NNW) 00:17:51 not established
UOSAT-12 20 Sep 00:36:46 00:40:45 32° 292° (WNW) 00:44:48 437.025 FM, 437.400 FM
Sapphire 20 Sep 01:02:27 01:07:07 30° 251° (WSW) 01:11:48 437.095 MHz 1200 baud AX-25 AFSK
ISS 20 Sep 01:15:35 01:18:55 74° 125° (SE) 01:22:13 145.800 FM
PCSat 20 Sep 01:31:43 01:34:09 13° 250° (WSW) 01:36:36 145.825 MHz
JAS-1B 20 Sep 02:31:11 02:32:57 11° 108° (ESE) 02:34:47 435.800 - 435.900 CW/SSB
RS-15 20 Sep 02:37:03 02:44:02 18° 114° (ESE) 02:50:47 29.354 - 29.394 USB, Beacon 29.352 USB
Oscar 19 20 Sep 02:37:41 02:42:07 30° 103° (ESE) 02:46:32 437.125 CW, 437.150 USB
AO-27 20 Sep 02:56:50 03:00:12 17° 103° (ESE) 03:03:34 436.795 MHz FM
